Regional Weather Roundup
Issued by NWS Green Bay, WI

Home | Current Version | Previous Version | Graphics & Text | Print | Product List | Glossary Off
Versions: 1 2 3 4 5 6 7 8 9 10 11 12 13 14 15 16 17 18 19 20 21 22 23 24 25 26 27 28 29 30 31 32 33 34 35 36 37 38 39 40 41 42 43 44 45 46 47 48 49 50

000
ASUS43 KGRB 271511
RWRGRB

NORTH-CENTRAL AND NORTHEAST WISCONSIN REGIONAL WEATHER ROUNDUP
NATIONAL WEATHER SERVICE GREEN BAY WI
1000 AM CDT TUE SEP 27 2016

WIZ005-009-010>012-018-019-271600-
NORTH CENTRAL WISCONSIN

CITY           SKY/WX    TMP DP  RH WIND       PRES   REMARKS
IRONWOOD       RAIN      48  46  93 W14G21    29.63R
MANITOWISH WTR LGT RAIN  47  47 100 W10G20    29.62S
ARBOR VITAE    CLOUDY    50  48  92 NW10G20   29.62S
EAGLE RIVER    CLOUDY    48  47  95 W12G20    29.60S FOG
LAND O LAKES   LGT RAIN  48  46  92 NW10G17   29.61S
RHINELANDER    CLOUDY    50  47  89 W15       29.64R
PHILLIPS       RAIN      47  47  98 W8        29.66S
ANTIGO         DRIZZLE   47  47  97 W13G18    29.65R
TOMAHAWK       LGT RAIN  48  46  91 W12G17    29.66S
MERRILL        CLOUDY    49  47  93 W13       29.67S
$$

WIZ013-073-271600-
NORTHEAST WISCONSIN

CITY           SKY/WX    TMP DP  RH WIND       PRES   REMARKS
IRON MOUNTAIN  CLOUDY    51  46  83 W13G20    29.56R
MARINETTE      CLOUDY    55  45  67 W8G21     29.60S
OCONTO         MOSUNNY   56  45  68 W16G23    29.62S
$$

WIZ017-030-035>037-045-271600-
CENTRAL WISCONSIN

CITY           SKY/WX    TMP DP  RH WIND       PRES   REMARKS
MEDFORD        CLOUDY    48  48 100 W16G22    29.69S
WAUSAU         CLOUDY    51  45  79 W21G26    29.67R
MOSINEE        CLOUDY    50  46  87 W14G21    29.70R
MARSHFIELD     CLOUDY    52  42  69 W18G26    29.71S
WISC RAPIDS    CLOUDY    53  44  71 W14       29.73S
STEVENS POINT  CLOUDY    51  43  74 W9G21     29.70S
WAUPACA        PTSUNNY   56  44  65 W13G21    29.70S
SHAWANO        CLOUDY    55  46  69 W10G17    29.66S
CLINTONVILLE   NOT AVBL
WAUTOMA        CLOUDY    53  43  68 W10G21    29.73S
$$

WIZ038-039-048-051-271600-
FOX VALLEY

CITY           SKY/WX    TMP DP  RH WIND       PRES   REMARKS
NWS GREEN BAY  CLOUDY    55  47  74 W12G18    29.66S
APPLETON       PTSUNNY   55  43  62 W15G24    29.67S
OSHKOSH        CLOUDY    54  42  64 W12G22    29.70S
FOND DU LAC    CLOUDY    54  42  64 W14G25    29.72R
$$

WIZ022-050-052-271600-
EAST CENTRAL WISCONSIN

CITY           SKY/WX    TMP DP  RH WIND       PRES   REMARKS
EPHRAIM        CLOUDY    54  47  77 W16G22    29.59R
WASHINGTON ISL CLOUDY    54  46  75 W12G23    29.57S
STURGEON BAY   CLOUDY    56  46  69 W16G24    29.62S
MANITOWOC      CLOUDY    55  44  66 MISG      29.67F
SHEBOYGAN      CLOUDY    54  42  64 W15       29.69F
$$

LMZ563-521-522-541>543-271600-
LAKESHORE

STATION/POSITION TIME  TEMP    WIND        PRES    VSBY  WAVE
                       AIR SEA DIR/SP/G                  HT/PER
                 (UTC) (F)     (DEG/KT/KT) (MB)    (MI)  (FT/S)
SHEBOYGAN LKSHOR 1500   54     270/ 15/ 19 1005.3R
KEWAUNEE LKSHORE 1400   54     270/  9/ 14 1003.6R
NORTHPORT PIER   1400   54     250/  4/ 11 1001.7S
N MID LAKE BUOY  1450   57 66  260/ 23/ 27 1000.2F         5/ 5
CHAMBERS ISLAND  1400   54     230/  8/ 14 1001.7S
MENOMINEE LKSHOR 1400   55     240/ 14/ 18 1001.5F
$$




USA.gov is the U.S. government's official web portal to all federal, state and local government web resources and services.